CZ-3B DEB, 39337

Orbit data source: Space-Track

CZ-3B DEB, 39337 is space debris in HEO originally from a launch on Sat, 04 Sep 2010 UTC launched from the Xichang Space Center, China (XSC). Debris objects in space refer to the collection of defunct objects orbiting the Earth. Examples of debris include non-operational satellites, rocket bodies, and fragments generated from explosions, collisions, or faulty payload assembly.

Loading next visibility...
Identifier
39337, 2010-042J
Orbit
HEO
Country
Flag of CNCN / PRC
Related business
Manufacturer
CALT
Mission
Spacecraft
Bus & Motor
Unknown
Mass
Unknown
Launch date (UTC)
2010-09-04 (16 years ago)
Launch vehicle
Unknown
Launch site
Xichang Space Center, China (XSC)
Object type
Payload
Rocket body
Debris
Shape & HBR
Unknown shape, 0.3 m
Radar Cross Section
Medium (>0.1 m² and <1 m²)

Expand to show TLE details & history
Last TLE update: 3 days ago

TLE from 3 days ago
0 CZ-3B DEB
1 39337U 10042J   26170.88415376  .00000250  00000-0  35157-2 0  9990
2 39337  24.3488 112.9747 7543294 297.5417   7.0081  1.84293476 82758
Epoch: 2026-06-19T21:13Z
TLE epoch observation values (Epoch: 2026-06-19T21:13:10.884Z)
Latitude
-0.00019°
Longitude
-113.5808°
Altitude
2,591.598 km
Speed
8.642 km/s
True Right ascension
07h 31m 17s
True Declination
0° 00' 01"
Sunlit
Object was in daylight at epoch
Visualization orbit readout
Latitude
Unknown
Longitude
Unknown
Altitude
Unknown
Speed
Unknown
Apparent Right ascension
Unknown
Apparent Declination
Unknown
Sunlit
N/A
Visualization observer readout
Local Sidereal Time
00:50:17
Azimuth
Unknown
Elevation
Unknown
Doppler factor
Unknown
Orbital elements
Apogee altitude
42,928.311 km
Perigee altitude
526.578 km
Semi-major axis
28,105.582 km
Eccentricity
0.75433
Inclination
24.3488°
RAAN
112.9747°
Arg. of periapsis
297.5417°
True anomaly
63.05511°
Mean anomaly
7.0081°
Eccentric anomaly
25.85838°
Mean motion
0.46063 °/min
Orbital period
781.53 mins
BSTAR
0.0035157
Loading maneuver chart data...
Computing Atmospheric mass density...
Loading historical data...
Loading historical data...
Loading historical data...
Loading historical data...
Loading historical data...
Loading historical data...
Loading historical data...

Documentation

Showing up to 5 results
|